STARLINK-36046

Last updated on Mon Dec 15 2025 00:02:11 GMT+0000 (Coordinated Universal Time)

1 66810U 25278V 25348.25003472 -.01331821 00000+0 -69501-2 0 9993 2 66810 42.9974 242.7336 0001860 277.4249 137.5655 15.82786414 2971
UTC large
Height (km)
Speed (km/s)
/
Latitude / Longitude
Inclination (degrees)
Orbital Period (minutes)
Azimuth
Elevation
Range (km)
Doppler Factor

Next 0 passes for location: London (51.5072 / 0.1276)

Sorry there are no passes over London.